Orbital Elements at Epoch 2459000.5 (2020-May-31.0) TDB
Reference: JPL 24 (heliocentric ecliptic J2000)
Element | Value | Uncertainty (1-sigma) | Units |
e | .1115150164041599 | 4.7329e-08 | |
a | 3.140302496812954 | 3.129e-08 | au |
q | 2.790111612366834 | 1.4848e-07 | au |
i | 16.25442089203741 | 5.1977e-06 | deg |
node | 252.2333332049902 | 2.2212e-05 | deg |
peri | 224.2936215891389 | 4.1445e-05 | deg |
M | 301.0460125179162 | 3.3661e-05 | deg |
tp | 2459333.363624419230 (2021-Apr-28.86362442) | 0.00019205 | TDB |
period | 2032.617468450961 5.57 | 3.038e-05 8.318e-08 | d yr |
n | .1771115350466572 | 2.6471e-09 | deg/d |
Q | 3.490493381259075 | 3.4779e-08 | au |
|
| | Orbit Determination Parameters
Additional Information
|